Location: Chèvreville
(49.1099°N, 2.8495°E)
Time: 14:37:39
(UTC+00:00)

Cosmos 1023 Rocket - Pass Details

Date: 28 January 2023
Orbit: 735 x 771 km, 74.1° (Epoch: 25 March)

Event Time Altitude Azimuth Distance (km) Brightness Sun altitude
Rises 18:13:52 0° 193° (SSW) 3,199 8.0 -15.6°
Reaches altitude 10° 18:16:14 10° 191° (S) 2,273 7.2 -16.0°
Maximum altitude 18:21:20 68° 109° (ESE) 807 4.4 -16.8°
Enters shadow 18:25:44 14° 29° (NNE) 1,998 6.3 -17.5°
